Tracking 27420 objects as of 28-May-2023
HD Live streaming from Space Station
objects crossing your sky now

STARLINK-6303

Track STARLINK-6303 now!
10-day predictions
STARLINK-6303 is classified as:


NORAD ID: 56393
Int'l Code: 2023-061V
Perigee: 402.8 km
Apogee: 405.0 km
Inclination: 43.0 °
Period: 92.5 minutes
Semi major axis: 6774 km
RCS: Unknown
Launch date: May 4, 2023
Source: United States (US)
Launch site: AIR FORCE EASTERN TEST RANGE (AFETR)
Your satellite tracking list
Your tracking list is empty




NASA's NSSDC Master Catalog

Two Line Element Set (TLE):
1 56393U 23061V   23148.25001157 -.00910142  00000-0 -13584-1 0  9998
2 56393  42.9986 327.5773 0001591 269.5068  78.4544 15.56852684  1308
Source of the keplerian elements: AFSPC